Weather reports worldwide

Advertisment
Lanveoc Poulmic, France (7109): temperature & dewpoint: 10.01.2018 20:00:00 - 16.01.2018 20:00:00 (CET)Lanveoc Poulmic, France (7109): wind speed & gusts: 10.01.2018 20:00:00 - 16.01.2018 20:00:00 (CET)Lanveoc Poulmic, France (7109): wind direction: 10.01.2018 20:00:00 - 16.01.2018 20:00:00 (CET)Lanveoc Poulmic, France (7109): reduced air pressure: 10.01.2018 20:00:00 - 16.01.2018 20:00:00 (CET)Lanveoc Poulmic, France (7109): visibility: 10.01.2018 20:00:00 - 16.01.2018 20:00:00 (CET)Lanveoc Poulmic, France (7109): precipitation: 10.01.2018 20:00:00 - 16.01.2018 20:00:00 (CET)
Date & Time tt [°C] td [°C] ff [km/h] ff [kn] fx [km/h] fx [kn] dd ppp [hPa] vv [km] rr [mm]
16.01.2018 20:00:00 8,5 4,9 35 19 96 52 WNW 1007,8 10 0,4
16.01.2018 19:00:00 8,5 4,5 50 27 89 48 WNW 1007,8 10 -
16.01.2018 18:00:00 8,7 5,1 50 27 94 51 WNW 1007,6 10 0,2
16.01.2018 17:00:00 8,1 5,6 50 27 93 50 W 1008,3 10 0,8
16.01.2018 16:00:00 9,6 5,8 35 19 70 38 W 1008,2 10 -
16.01.2018 15:00:00 10,6 6,0 37 20 63 34 W 1008,2 10 0,0
16.01.2018 14:00:00 10,7 6,6 39 21 65 35 W 1008,7 8 0,0
16.01.2018 13:00:00 9,6 6,1 39 21 59 32 W 1009,5 10 -
16.01.2018 12:00:00 10,7 7,2 34 18 55 30 W 1010,2 10 0,0
16.01.2018 11:00:00 10,5 6,3 34 18 61 33 WNW 1010,0 10 0,0
16.01.2018 10:00:00 10,4 6,3 41 22 65 35 WNW 1009,5 10 -
16.01.2018 09:00:00 10,5 7,0 29 16 55 30 W 1008,6 10 0,0
16.01.2018 08:00:00 10,5 6,1 35 19 67 36 WNW 1008,5 10 0,0
16.01.2018 07:00:00 10,8 6,5 39 21 72 39 WNW 1007,9 10 -
16.01.2018 06:00:00 10,9 8,3 41 22 63 34 W 1007,4 10 0,0
16.01.2018 05:00:00 11,0 8,4 39 21 67 36 W 1007,3 10 0,0
16.01.2018 04:00:00 10,6 8,7 34 18 63 34 W 1007,4 10 -
16.01.2018 03:00:00 10,2 9,1 34 18 57 31 W 1007,5 8 0,2
16.01.2018 02:00:00 10,1 9,3 37 20 57 31 W 1007,7 10 0,2
16.01.2018 01:00:00 9,9 9,3 34 18 57 31 W 1008,0 10 -
16.01.2018 00:00:00 10,2 8,5 39 21 57 31 W 1008,1 9 0,0
15.01.2018 23:00:00 10,5 9,1 37 20 57 31 W 1008,0 10 0,0
15.01.2018 22:00:00 10,3 8,2 28 15 54 29 W 1007,7 10 -
15.01.2018 21:00:00 9,6 8,7 31 17 55 30 W 1007,8 10 1,0
15.01.2018 20:00:00 10,2 8,8 31 17 54 29 W 1007,4 10 0,2
15.01.2018 19:00:00 9,9 9,4 31 17 46 25 WNW 1007,4 5 -
15.01.2018 18:00:00 9,6 8,5 34 18 72 39 WNW 1007,3 10 0,2
15.01.2018 17:00:00 10,6 9,2 29 16 52 28 WNW 1007,1 10 0,0
15.01.2018 16:00:00 10,9 9,5 31 17 57 31 WNW 1007,0 8 -
15.01.2018 15:00:00 10,6 9,0 29 16 55 30 WNW 1007,3 10 0,0
15.01.2018 14:00:00 11,2 10,6 34 18 68 37 W 1006,9 10 0,4
15.01.2018 13:00:00 11,4 10,9 37 20 72 39 W 1007,2 5 -
15.01.2018 12:00:00 11,5 11,2 41 22 68 37 W 1007,6 3,0 0,6
15.01.2018 11:00:00 11,3 11,1 39 21 65 35 WSW 1007,9 2,7 3,0
15.01.2018 10:00:00 10,9 10,6 42 23 70 38 WSW 1008,4 2,9 -
15.01.2018 09:00:00 10,3 10,0 35 19 67 36 SW 1009,0 4,5 1,0
15.01.2018 08:00:00 9,9 9,6 39 21 59 32 SW 1010,3 4,6 2,0
15.01.2018 07:00:00 9,5 9,0 39 21 65 35 SW 1011,4 4,3 -
15.01.2018 06:00:00 9,5 8,7 31 17 50 27 SW 1012,8 5 0,8
15.01.2018 05:00:00 10,0 7,8 28 15 42 23 SW 1013,9 10 0,0
15.01.2018 04:00:00 9,7 7,0 26 14 41 22 SW 1015,3 45 -
15.01.2018 03:00:00 9,5 7,4 22 12 39 21 SW 1016,2 10 0,0
15.01.2018 02:00:00 8,8 7,9 18 10 31 17 SW 1017,4 10 0,0
15.01.2018 01:00:00 7,8 6,9 16 9 29 16 S 1018,3 10 -
15.01.2018 00:00:00 7,2 6,1 18 10 28 15 S 1018,6 10 0,0
14.01.2018 23:00:00 6,6 5,7 13 7 21 11 S 1019,2 10 0,0
14.01.2018 22:00:00 5,7 5,1 11 6 16 9 SSW 1019,7 9 -
14.01.2018 21:00:00 5,4 5,0 9 5 15 8 SSW 1019,6 7 0,0
14.01.2018 20:00:00 5,1 4,2 9 5 11 6 SSW 1019,5 8 0,0
14.01.2018 19:00:00 5,8 4,3 8 4 13 7 SW 1019,0 9 -
14.01.2018 18:00:00 7,1 5,4 8 4 11 6 SSW 1018,5 10 0,0
14.01.2018 17:00:00 7,5 5,5 5 3 11 6 SW 1018,5 10 0,0
14.01.2018 16:00:00 7,8 5,3 5 3 11 6 WNW 1018,4 11 -
14.01.2018 15:00:00 8,0 4,8 4 2 8 4 N 1018,1 10 0,0
14.01.2018 14:00:00 7,7 4,5 0 0 8 4 N 1018,1 10 0,0
14.01.2018 13:00:00 7,6 4,4 2 1 5 3 - 1018,4 10 -
14.01.2018 12:00:00 6,3 4,8 2 1 5 3 - 1018,5 10 0,0
14.01.2018 11:00:00 4,3 4,2 5 3 9 5 E 1018,1 3,4 0,0
14.01.2018 10:00:00 3,0 2,7 8 4 9 5 ENE 1017,8 1,1 -
14.01.2018 09:00:00 2,4 1,8 5 3 9 5 E 1017,0 4,4 0,0
14.01.2018 08:00:00 3,0 2,4 5 3 11 6 ENE 1016,5 5 0,0
14.01.2018 07:00:00 3,6 3,0 8 4 13 7 NE 1016,1 6 -
14.01.2018 06:00:00 4,6 4,3 8 4 13 7 N 1015,8 5 0,0
14.01.2018 05:00:00 3,3 2,7 5 3 8 4 N 1015,5 4,4 0,0
14.01.2018 04:00:00 5,0 4,4 4 2 5 3 NNE 1015,1 6 -
14.01.2018 03:00:00 4,4 3,5 0 0 5 3 N 1014,9 8 0,0
14.01.2018 02:00:00 4,6 3,9 2 1 9 5 ESE 1015,1 8 0,0
14.01.2018 01:00:00 4,6 3,9 9 5 13 7 ESE 1014,9 7 -
14.01.2018 00:00:00 4,8 4,1 8 4 16 9 E 1014,8 8 0,6
13.01.2018 23:00:00 4,8 4,2 15 8 21 11 ESE 1014,3 6 0,8
13.01.2018 22:00:00 4,9 4,3 13 7 18 10 E 1014,0 7 -
13.01.2018 21:00:00 5,1 4,5 9 5 22 12 ESE 1013,9 6 0,2
13.01.2018 20:00:00 5,2 4,6 15 8 24 13 ESE 1013,4 8 0,2
13.01.2018 19:00:00 5,5 4,9 15 8 26 14 ESE 1013,1 7 -
13.01.2018 18:00:00 5,8 5,2 13 7 22 12 E 1012,7 6 1,0
13.01.2018 17:00:00 6,3 5,7 13 7 22 12 E 1012,4 5 2,0
13.01.2018 16:00:00 6,6 5,9 13 7 28 15 ESE 1012,1 7 -
13.01.2018 15:00:00 6,8 5,9 18 10 34 18 SE 1012,0 8 0,4
13.01.2018 14:00:00 7,2 6,3 21 11 37 20 SE 1012,2 10 0,0
13.01.2018 13:00:00 7,2 6,5 22 12 41 22 SE 1012,8 9 -
13.01.2018 12:00:00 7,1 6,2 22 12 39 21 SE 1013,4 10 0,2
13.01.2018 11:00:00 6,8 5,7 21 11 39 21 SE 1013,6 9 0,0
13.01.2018 10:00:00 7,0 5,9 22 12 39 21 SE 1013,4 10 -
13.01.2018 09:00:00 6,9 6,0 24 13 41 22 SE 1013,5 8 0,0
13.01.2018 08:00:00 6,9 6,2 24 13 42 23 SE 1013,8 9 0,0
13.01.2018 07:00:00 6,7 6,3 24 13 41 22 SE 1013,7 6 -
13.01.2018 06:00:00 6,9 5,7 26 14 39 21 SE 1014,1 10 0,0
13.01.2018 05:00:00 7,3 6,1 24 13 46 25 SE 1014,3 10 0,0
13.01.2018 04:00:00 7,6 5,9 24 13 41 22 SE 1015,0 10 -
13.01.2018 03:00:00 7,2 5,7 24 13 48 26 SSE 1015,8 10 0,0
13.01.2018 02:00:00 7,3 5,4 26 14 48 26 SSE 1016,4 10 0,0
13.01.2018 01:00:00 6,8 5,3 22 12 48 26 SE 1017,5 16 -
13.01.2018 00:00:00 6,7 5,5 24 13 41 22 SSE 1018,2 10 0,0
12.01.2018 23:00:00 6,2 5,0 24 13 44 24 SSE 1018,8 10 0,0
12.01.2018 22:00:00 6,3 5,1 24 13 42 23 SSE 1019,5 10 -
12.01.2018 21:00:00 6,2 5,0 24 13 37 20 SSE 1020,2 10 0,0
12.01.2018 20:00:00 6,4 5,0 21 11 37 20 SSE 1020,4 10 0,0
12.01.2018 19:00:00 6,5 5,1 21 11 34 18 SE 1020,8 9 -
12.01.2018 18:00:00 6,8 5,6 16 9 31 17 SE 1021,4 8 0,0
12.01.2018 17:00:00 7,2 5,8 18 10 34 18 SSE 1021,8 9 0,0
12.01.2018 16:00:00 7,4 6,0 15 8 31 17 SE 1022,1 7 -
12.01.2018 15:00:00 7,2 5,8 16 9 31 17 SE 1022,7 6 0,0
12.01.2018 14:00:00 7,5 6,1 18 10 29 16 SSE 1023,4 5 0,0
12.01.2018 13:00:00 6,9 5,4 15 8 26 14 SSE 1024,4 8 -
12.01.2018 12:00:00 5,3 4,7 8 4 21 11 E 1025,0 9 0,2
12.01.2018 11:00:00 3,2 3,1 9 5 15 8 ESE 1025,8 5 0,0
12.01.2018 10:00:00 1,4 1,4 5 3 13 7 E 1025,8 6 -
12.01.2018 09:00:00 0,7 0,6 8 4 11 6 E 1025,8 0,2 0,0
12.01.2018 08:00:00 0,3 0,2 5 3 9 5 E 1025,9 0,3 0,0
12.01.2018 07:00:00 0,6 0,5 5 3 9 5 E 1025,6 0,5 -
12.01.2018 06:00:00 1,4 1,3 8 4 11 6 E 1025,7 0,2 0,0
12.01.2018 05:00:00 1,8 1,8 9 5 13 7 E 1026,1 0,2 0,0
12.01.2018 04:00:00 0,5 0,2 4 2 9 5 - 1026,6 1,3 -
12.01.2018 03:00:00 1,4 1,1 5 3 8 4 E 1026,4 0,4 0,0
12.01.2018 02:00:00 2,3 2,0 0 0 8 4 N 1026,9 2,6 0,0
12.01.2018 01:00:00 3,4 3,1 5 3 5 3 ESE 1026,4 7 -
12.01.2018 00:00:00 4,3 3,9 4 2 8 4 SSW 1026,2 3,9 0,0
11.01.2018 23:00:00 5,1 4,4 4 2 15 8 E 1026,0 6 0,0
11.01.2018 22:00:00 5,4 4,4 5 3 16 9 NE 1025,6 10 -
11.01.2018 21:00:00 5,0 4,4 5 3 15 8 N 1025,7 7 0,0
11.01.2018 20:00:00 5,0 4,3 9 5 15 8 N 1024,7 10 0,0
11.01.2018 19:00:00 6,3 5,4 8 4 16 9 N 1024,0 10 -
11.01.2018 18:00:00 8,1 6,1 11 6 22 12 NNE 1022,7 10 0,0
11.01.2018 17:00:00 9,5 6,0 16 9 26 14 N 1022,5 10 0,0
11.01.2018 16:00:00 10,4 6,3 11 6 24 13 NNE 1021,2 10 -
11.01.2018 15:00:00 10,3 6,6 16 9 28 15 NNE 1020,2 10 0,0
11.01.2018 14:00:00 10,6 7,1 13 7 26 14 NE 1019,4 10 0,0
11.01.2018 13:00:00 10,1 7,0 16 9 29 16 NE 1019,1 50 -
11.01.2018 12:00:00 9,6 7,0 18 10 31 17 NE 1018,2 10 0,0
11.01.2018 11:00:00 8,6 6,9 13 7 34 18 NE 1016,8 10 0,0
11.01.2018 10:00:00 8,2 7,0 15 8 28 15 NNE 1015,3 10 -
11.01.2018 09:00:00 7,6 6,7 13 7 24 13 NE 1013,4 19 0,0
11.01.2018 08:00:00 7,4 6,8 13 7 28 15 NE 1011,7 10 0,0
11.01.2018 07:00:00 7,4 7,0 11 6 18 10 NE 1009,9 10 -
11.01.2018 06:00:00 7,5 6,9 5 3 9 5 ENE 1008,2 10 0,4
11.01.2018 05:00:00 7,2 5,8 5 3 21 11 NNW 1007,0 10 0,0
11.01.2018 04:00:00 7,6 6,1 16 9 28 15 WNW 1006,0 10 -
11.01.2018 03:00:00 7,6 6,4 21 11 52 28 WNW 1005,0 10 0,0
11.01.2018 02:00:00 7,5 6,6 26 14 44 24 WNW 1004,3 10 0,2
11.01.2018 01:00:00 7,2 6,3 29 16 50 27 WNW 1004,0 9 -
11.01.2018 00:00:00 7,7 6,5 24 13 37 20 WNW 1003,1 10 0,0
10.01.2018 23:00:00 7,4 6,8 15 8 34 18 W 1002,3 10 1,0
10.01.2018 22:00:00 7,9 7,3 11 6 21 11 ESE 1001,4 10 -
10.01.2018 21:00:00 8,1 7,5 15 8 22 12 E 1001,1 10 0,0
10.01.2018 20:00:00 8,0 7,4 9 5 29 16 ESE 1001,1 10 2,0

tt = temperature
td = dewpoint
ff = wind speed
fx = gusts
dd = wind direction
ppp = reduced air pressure
vv = visibility
rr = precipitation

Next stations